Lapse_Rate
5.2 5.3 5.2 5.2 5.0 4.8 4.4 3.9 3.6 4.0 4.3 4.4 4.5 4.5 4.6 4.6 4.5 4.4 4.5 4.5 4.5 4.7
4.9 4.8 4.8 4.6 4.4 4.1 3.8 3.3 3.0 3.0 3.6 3.9 4.3 4.1 4.6 4.4 4.2 4.0 4.1 4.0 4.0 4.2
4.5 4.4 4.2 4.2 4.0 3.9 4.0 3.6 2.6 2.6 2.8 3.4 3.6 3.9 4.0 4.0 3.8 3.8 3.9 3.9 3.8 3.7
3.5 3.3 3.7 4.0 3.6 3.3 3.6 3.7 3.3 2.8 2.6 2.4 2.7 3.0 3.2 3.3 3.3 3.3 3.3 3.2 3.2 3.2
2.8 2.9 2.8 2.8 2.9 2.9 2.9 3.0 2.8 2.7 2.7 2.5 2.3 2.2 2.3 2.4 2.6 2.6 2.6 2.7 3.0 3.1
2.9 2.8 2.7 2.6 2.3 2.3 2.5 2.7 2.8 2.5 2.2 2.3 2.2 2.1 2.1 1.9 2.0 2.5 2.7 2.6 2.5 2.7
2.5 2.5 2.5 2.4 2.3 2.0 2.0 2.0 2.0 2.1 2.4 2.5 2.5 2.4 2.4 2.4 2.7 2.3 1.9 1.9 2.0 2.5
2.3 2.2 2.3 2.2 2.0 1.9 2.0 2.1 2.1 2.2 2.2 2.3 2.4 2.5 2.5 2.5 2.2 2.1 2.1 2.1 2.2 2.1
2.0 2.0 2.1 2.0 2.0 1.8 1.7 1.6 1.5 1.5 1.5 1.6 1.7 1.7 1.8 1.8 1.9 1.9 1.9 1.8 1.8 2.0
1.9 2.0 2.1 2.0 2.1 2.1 1.9 1.8 1.7 1.6 1.6 1.6 1.5 1.5 1.5 1.5 1.6 1.6 1.7 1.8 2.0 2.2
1.9 1.8 1.8 1.8 1.9 1.9 1.9 2.0 2.0 1.9 1.8 1.7 1.7 1.8 1.7 1.7 1.7 1.7 1.8 1.9 1.9 1.9
1.7 1.8 1.8 1.7 1.7 1.7 1.7 1.8 1.7 1.7 1.8 1.8 1.9 2.0 1.8 1.7 1.7 1.7 1.8 1.9 1.9 2.1
1.7 1.7 1.7 1.7 1.7 1.7 1.7 1.8 1.8 1.9 1.9 1.9 1.8 1.9 1.9 1.8 1.7 1.8 1.7 1.7 1.7 1.9
1.6 1.5 1.5 1.5 1.5 1.5 1.4 1.5 1.6 1.7 1.7 1.8 1.8 1.8 1.9 1.9 2.0 2.0 2.0 2.0 2.0 2.0
Wind_Speed
8 5 5 5 6 4 5 5 10 11 11 11 11 11 12 10 9 10 7 9 7 6
5 6 6 6 5 5 6 7 10 11 11 10 11 10 10 6 7 8 6 7 7 6
6 5 6 6 6 7 7 10 10 10 11 10 10 9 9 6 8 7 5 5 7 6
8 8 6 5 5 6 7 9 8 9 9 8 8 8 7 6 6 7 6 5 6 6
11 9 8 7 7 8 6 8 8 8 7 7 7 7 6 6 5 5 5 5 5 6
11 10 10 10 8 8 7 7 8 7 5 5 5 5 6 5 5 4 4 4 4 4
6 6 7 7 7 7 8 6 5 6 6 6 6 5 4 4 4 4 4 5 4 4
7 6 5 4 4 4 4 4 5 5 5 6 6 6 6 6 6 6 6 5 7 9
6 5 5 5 4 3 2 1 2 3 2 3 4 10 12 11 7 8 8 7 8 11
6 6 4 3 3 2 2 2 2 2 3 4 5 12 13 14 8 8 8 9 9 8
5 6 6 5 5 4 3 3 3 3 4 4 5 12 15 16 10 7 8 9 10 12
7 7 6 6 6 5 5 5 5 5 6 6 6 12 15 15 8 8 8 8 14 13
6 6 6 7 7 6 6 7 6 8 7 10 8 12 14 14 7 8 8 11 12 22
5 5 6 6 6 6 7 8 8 9 9 9 10 10 17 18 10 9 9 10 9 9
Wind_Direction
119 125 132 138 139 132 124 123 132 125 123 121 122 123 121 115 114 116 116 117 111 109
96 116 127 118 112 114 112 126 125 123 118 116 112 113 109 109 110 112 110 110 110 104
63 83 114 127 127 129 127 127 128 122 117 114 107 110 109 108 113 115 111 116 118 116
39 40 54 78 104 113 115 125 127 127 122 118 111 109 108 108 115 118 116 121 128 123
53 49 49 52 52 67 83 98 115 121 122 120 117 117 116 120 125 132 133 132 135 139
58 58 64 65 69 80 86 80 87 96 105 111 117 123 110 116 129 138 134 140 154 150
60 80 78 65 75 93 100 98 103 113 120 121 120 123 140 149 158 168 169 175 179 183
25 26 38 65 99 100 87 106 137 150 155 161 162 178 184 187 190 197 202 205 207 210
17 17 22 17 20 19 38 154 178 187 195 200 212 216 215 201 207 211 215 215 220 226
1 356 356 351 348 343 337 336 305 275 240 231 226 244 241 240 232 220 220 230 238 236
333 330 332 329 312 291 275 272 268 260 256 256 255 262 264 263 259 244 227 230 235 236
350 339 329 316 308 302 287 270 258 257 246 245 253 268 276 278 281 272 259 249 252 248
320 322 315 309 302 297 288 279 271 266 253 245 251 253 270 276 282 273 262 250 249 252
298 305 297 291 290 282 275 274 270 268 266 258 252 252 262 266 262 261 264 263 260 254